RH
56 55 56 57 58 59 62 71 74 81 92 96 86 84 83 87 91 92 83 75 73 73 84 88 81 83 68 67 71 74 61 48 59 50 45 42 41 39 39 38 37 38 39
40 62 56 75 86 94 91 86 87 97 94 86 84 87 88 91 87 86 84 81 73 81 90 88 85 77 79 76 85 83 71 61 48 55 47 47 45 44 45 44 40 40 39
65 63 74 80 68 82 88 89 100 94 92 92 88 86 86 85 86 85 85 82 77 85 95 90 85 82 74 82 85 75 69 65 59 56 60 58 58 58 56 49 45 42 39
73 82 94 85 91 100 100 99 99 98 96 96 90 83 82 82 87 91 92 83 87 94 89 86 81 81 88 94 86 79 74 68 66 70 78 82 81 75 66 62 61 50 55
78 85 95 96 96 99 100 100 100 100 100 99 97 89 88 89 93 93 87 90 94 88 82 79 76 81 78 84 81 77 85 86 80 77 93 95 89 84 76 67 70 66 61
87 88 85 85 91 95 94 93 88 87 89 93 93 93 95 95 93 90 87 90 92 79 75 73 82 81 73 74 75 78 77 80 84 84 84 83 77 75 72 72 74 72 66
79 82 88 90 92 94 96 92 88 86 87 86 88 91 90 89 87 86 84 84 81 85 88 86 90 81 85 100 94 78 73 70 72 80 79 77 78 75 76 81 84 78 67
69 72 74 75 76 77 80 83 82 81 76 76 78 79 75 75 76 79 80 78 79 84 92 94 98 96 87 85 82 78 74 72 72 70 79 86 94 94 90 86 85 85 74
69 70 70 68 68 68 70 71 72 70 72 72 74 75 73 73 73 74 81 90 98 96 85 81 80 71 63 63 60 55 46 26 24 46 53 54 46 27 26 78 99 97 96
66 66 65 65 68 69 71 71 72 75 76 74 76 78 80 92 97 100 99 92 86 82 75 66 54 51 60 63 66 72 85 82 86 88 89 82 77 72 81 87 86 98 97
63 65 68 71 75 77 77 77 77 75 72 76 78 90 88 88 94 83 80 72 68 63 54 45 53 70 68 74 86 88 90 91 85 96 100 96 92 93 84 85 89 87 100
70 74 76 76 77 77 80 78 78 76 75 77 78 91 83 77 73 69 66 66 56 35 49 66 58 44 54 80 86 86 82 74 83 89 88 93 100 98 97 93 93 94 95
76 78 78 78 79 74 74 80 83 79 72 66 76 88 82 81 77 72 67 51 24 31 54 50 46 64 77 83 78 78 77 86 88 90 90 90 93 90 88 87 97 96 96
74 72 72 67 63 52 56 57 54 54 50 52 59 74 85 80 75 68 45 24 31 45 54 58 67 77 82 76 79 81 84 87 88 92 91 92 92 93 95 97 98 100 99
53 47 43 41 40 45 53 54 53 56 51 55 60 64 69 78 77 64 61 63 80 81 77 75 78 75 78 84 83 86 89 88 92 91 94 93 93 96 95 98 94 100 97
49 43 40 40 41 44 51 49 44 38 32 28 33 35 44 54 56 55 70 82 85 86 80 80 76 78 81 87 90 95 92 93 94 96 97 96 97 97 95 95 97 100 98
50 44 42 46 53 52 50 56 76 74 69 68 64 61 60 60 63 69 77 86 82 77 74 77 77 78 85 94 94 95 96 97 98 98 97 99 98 97 95 95 97 99 98
52 48 48 49 50 53 55 66 75 78 85 81 78 70 79 73 79 71 85 85 80 69 84 84 83 82 92 95 97 99 100 100 100 100 100 100 99 98 96 95 97 97 99
61 63 61 63 65 67 76 79 65 60 64 64 68 88 89 83 74 58 83 82 81 87 93 87 83 94 94 98 95 98 97 100 100 100 100 100 99 99 96 96 96 98 98
79 88 90 90 93 91 88 84 73 72 72 72 70 84 84 76 68 63 93 84 90 93 83 86 95 90 89 94 100 96 90 100 100 100 100 100 99 100 98 98 98 100 98
95 95 95 95 92 91 89 84 80 80 80 74 74 77 79 78 76 92 93 87 92 85 92 97 89 83 93 100 86 85 100 100 100 100 100 100 100 99 99 98 98 100 99
95 94 93 92 93 93 88 78 80 80 84 86 84 81 85 90 97 96 92 91 87 90 95 89 86 91 94 83 95 100 99 100 100 100 100 100 100 99 98 97 97 98 98
95 95 94 91 90 84 84 93 88 83 87 80 81 91 94 97 98 96 97 98 99 98 89 83 90 93 80 99 96 90 100 100 100 100 100 100 100 100 98 97 97 97 98
93 92 88 89 87 85 93 90 80 94 97 97 95 97 99 94 93 100 99 98 98 95 93 92 90 82 100 91 92 97 99 100 100 100 100 100 100 100 99 97 97 97 100
95 94 89 90 92 95 97 97 96 93 94 96 97 94 84 84 95 95 96 94 92 100 96 90 80 85 89 97 95 97 100 98 96 100 100 99 100 100 99 98 97 97 99
96 91 91 94 96 92 91 96 95 86 91 95 90 84 95 99 98 94 87 94 99 99 92 83 80 88 96 97 98 100 95 95 99 98 100 100 100 100 99 98 97 97 98
Wind_Speed
27 38 38 46 51 47 41 34 19 25 32 29 30 23 24 24 22 22 28 29 25 17 14 13 14 9 10 16 22 22 22 20 15 18 22 22 23 25 22 24 24 24 25
39 35 40 29 18 17 21 24 20 34 27 23 23 23 24 24 22 24 28 26 21 17 15 16 11 8 12 20 19 21 23 25 24 24 28 27 28 29 29 28 29 30 29
35 38 31 28 29 31 24 24 28 24 19 18 18 21 24 26 24 23 23 23 17 17 17 13 12 12 17 20 19 20 23 26 25 27 27 30 31 31 34 36 32 32 35
35 26 27 24 23 24 24 24 23 20 18 18 19 23 25 24 21 19 20 17 16 17 15 15 7 10 17 18 19 20 22 24 24 26 27 30 29 35 32 32 33 35 36
27 24 27 26 24 23 22 19 16 14 14 14 19 24 24 21 17 16 17 17 18 17 16 13 11 12 18 23 26 31 30 26 24 24 26 28 28 25 27 32 30 35 38
30 29 26 24 22 19 18 15 14 12 10 12 14 17 17 15 14 15 16 18 18 16 12 13 14 20 24 24 20 22 25 29 28 26 26 23 28 26 32 34 30 22 16
28 27 27 27 25 22 19 18 15 14 12 11 12 13 14 13 15 17 16 17 14 10 8 11 18 18 17 20 19 19 20 21 22 23 26 27 28 30 29 30 31 28 27
26 26 27 27 26 25 23 22 20 17 15 15 15 14 15 17 16 16 13 10 8 8 9 10 11 9 10 20 25 29 31 33 32 33 30 33 31 31 31 31 36 35 32
25 25 25 26 27 26 23 21 19 19 18 16 16 16 16 15 14 10 9 7 5 4 4 7 12 17 18 21 26 30 33 36 34 31 30 33 37 41 44 38 28 20 15
25 25 26 26 24 24 23 23 21 20 19 17 16 15 16 15 11 8 7 7 4 6 10 13 14 14 16 19 23 26 28 31 34 39 37 36 35 37 34 33 30 26 21
27 28 27 28 28 27 26 25 24 21 19 16 13 11 13 14 12 9 6 2 2 7 11 13 14 14 18 19 17 19 22 30 32 31 32 33 35 32 31 32 30 30 25
27 29 30 27 24 22 22 19 17 18 19 17 18 21 18 14 9 5 1 3 6 8 10 12 16 18 17 15 14 16 19 24 23 24 26 27 26 28 32 31 31 31 32
27 26 24 21 19 20 21 18 20 20 21 19 22 23 20 13 8 2 3 6 8 9 10 14 16 15 14 13 16 18 19 20 21 22 23 24 29 34 34 34 30 29 33
25 23 20 21 23 22 24 24 24 20 19 18 20 21 17 9 3 3 6 9 10 12 14 14 15 15 13 17 18 18 18 19 21 22 24 28 30 30 32 27 30 23 23
26 25 24 23 24 23 19 15 15 13 11 14 11 10 7 4 2 5 8 10 11 12 12 14 16 17 18 17 17 17 18 20 21 23 25 28 31 31 32 28 30 24 20
26 22 20 21 21 19 19 17 13 10 7 6 6 3 3 3 4 8 9 9 10 11 12 13 15 16 19 17 17 18 18 21 22 25 24 27 29 30 31 34 36 23 23
25 22 21 23 19 18 15 14 14 8 7 5 4 4 2 2 5 10 9 7 9 8 11 12 13 16 17 14 16 18 21 22 24 23 25 27 29 28 32 31 34 18 10
23 21 20 18 17 18 17 15 10 7 4 3 1 1 3 1 5 9 8 6 7 9 10 11 14 16 15 16 17 20 22 23 23 24 27 27 27 28 31 29 28 27 15
22 19 18 16 15 12 11 8 6 5 4 5 4 7 8 1 8 14 5 6 7 8 9 12 15 15 18 18 20 21 23 22 24 26 25 27 27 29 31 29 29 35 15
20 16 15 13 11 10 7 6 6 5 4 3 2 4 5 8 13 8 7 7 7 7 12 14 13 16 19 20 19 22 24 21 24 24 25 27 27 31 29 30 31 29 16
14 14 11 9 7 5 4 5 3 3 2 2 3 3 4 8 8 6 5 7 9 12 12 13 16 18 18 19 24 22 21 23 23 25 27 24 31 30 30 30 31 32 18
13 10 7 6 4 3 2 1 2 2 3 3 4 6 7 7 6 6 7 9 12 12 13 16 17 18 20 22 18 20 24 24 26 27 25 32 29 30 30 30 30 27 20
10 8 6 4 2 3 4 3 2 4 6 7 7 8 8 7 8 9 10 10 10 13 14 16 18 20 23 16 19 21 23 25 27 27 32 32 31 30 30 29 29 29 26
9 7 6 5 3 5 4 5 8 6 6 6 7 8 7 9 11 10 10 11 13 15 16 18 20 22 19 21 19 21 21 26 26 30 30 31 31 31 30 30 27 27 32
8 6 6 6 6 7 6 6 6 8 9 8 9 10 12 13 12 13 14 15 17 16 17 21 23 22 18 18 18 20 24 27 25 27 29 30 30 31 30 29 28 29 29
9 9 9 8 8 9 9 9 8 10 10 10 12 13 12 12 13 15 17 17 16 18 23 26 24 18 18 19 20 23 27 25 25 26 26 28 28 28 28 28 29 28 25
Wind_Direction
228 225 224 221 220 216 209 207 240 244 226 211 208 214 223 228 237 228 216 208 206 216 218 228 205 213 242 268 288 277 276 264 259 277 272 271 261 258 263 251 244 243 249
215 230 225 213 178 196 197 200 229 224 208 202 215 225 225 226 225 219 216 214 212 212 215 197 205 222 272 295 291 286 289 274 271 267 274 275 262 264 265 262 254 249 251
215 227 214 208 214 218 216 206 202 191 195 198 204 209 210 212 214 217 220 211 212 209 199 201 219 256 289 293 294 293 288 286 280 276 282 284 277 275 274 268 257 261 259
208 189 164 176 172 170 169 170 179 181 189 195 199 207 209 213 214 211 210 204 205 204 210 207 228 314 303 297 298 297 295 290 285 283 276 274 274 275 269 267 265 256 257
147 149 137 140 143 150 158 161 161 164 174 185 193 198 201 200 201 200 200 198 194 195 201 215 270 281 294 287 295 297 291 286 282 273 267 268 268 262 255 265 256 260 260
128 126 130 133 138 143 145 152 152 151 158 171 179 184 188 195 192 199 200 194 190 191 216 256 270 288 299 294 299 304 299 290 283 276 275 272 273 270 272 268 259 252 257
120 128 135 139 139 143 149 151 149 151 151 152 153 167 176 176 173 179 186 181 190 213 248 272 295 304 313 313 306 305 303 301 302 313 299 289 285 286 285 275 269 257 250
126 127 132 131 131 135 138 139 144 151 150 145 146 152 151 156 169 173 180 202 230 256 288 306 309 319 325 320 314 311 308 306 306 306 300 295 299 298 295 285 276 267 254
131 134 139 140 138 137 137 140 144 143 140 142 146 150 152 163 173 188 205 218 226 224 255 279 309 313 318 316 318 319 318 313 317 314 307 303 300 300 289 289 277 241 234
138 138 141 141 141 138 139 139 140 139 140 146 151 146 153 147 168 181 181 179 206 280 298 308 316 321 314 317 323 322 316 321 325 322 317 312 311 307 303 283 275 248 236
143 144 143 144 141 138 136 138 142 142 143 145 141 136 145 151 151 158 162 183 318 324 323 326 329 326 323 324 324 324 323 322 323 319 313 311 310 303 301 297 283 257 238
139 139 139 137 138 142 143 147 154 146 141 139 132 133 134 136 137 139 79 353 338 335 335 331 324 328 333 340 343 337 332 332 332 327 323 319 311 315 307 299 290 281 250
134 134 136 142 149 153 154 158 155 153 143 137 135 138 137 134 131 143 308 324 332 340 337 331 335 341 350 352 343 340 340 338 335 329 323 322 322 313 312 315 287 280 252
140 144 150 149 142 135 137 137 129 132 133 135 131 132 145 146 125 336 336 339 341 344 344 346 349 352 353 340 345 345 343 338 334 327 326 321 322 316 313 308 307 273 229
144 141 135 133 131 121 116 119 128 122 149 149 152 158 166 147 42 3 355 348 348 342 341 350 352 354 355 351 345 341 338 339 337 333 325 327 323 318 313 305 310 279 215
127 122 127 129 130 128 123 110 99 106 110 125 128 126 108 87 9 355 354 350 348 345 343 355 0 1 358 348 340 337 338 337 335 331 329 327 320 319 317 312 312 254 257
120 115 109 110 120 128 132 134 127 111 103 98 99 78 80 40 10 357 346 346 358 356 359 357 359 356 353 345 338 335 333 333 332 330 329 322 322 316 323 316 318 267 248
108 111 110 108 110 106 100 100 129 131 144 169 225 202 175 34 4 353 337 312 334 348 351 355 354 350 347 339 335 332 331 332 333 330 327 323 320 322 322 320 317 304 225
107 105 103 101 92 95 90 90 99 98 84 88 107 171 167 301 338 340 348 354 355 1 0 346 343 341 339 336 333 333 331 329 329 327 324 321 321 324 320 320 313 319 211
97 95 88 87 87 85 85 83 73 73 61 55 61 149 229 324 348 353 359 352 355 348 342 340 336 333 331 332 332 330 329 327 326 323 320 318 321 322 317 314 317 315 247
99 87 90 92 88 81 76 66 50 49 33 9 358 352 341 340 340 334 340 341 336 339 335 330 331 331 330 327 326 330 326 324 321 317 316 314 320 315 315 312 315 309 255
93 90 86 82 74 75 21 352 2 345 353 9 335 337 328 338 337 324 325 323 327 325 322 326 327 324 324 326 331 329 325 320 319 320 317 318 315 313 311 310 311 303 292
84 83 78 70 65 22 19 19 353 339 325 324 329 328 330 333 336 338 334 331 324 321 324 321 319 321 325 328 325 323 322 320 320 316 316 314 311 310 309 308 310 310 312
70 68 61 49 32 9 10 345 342 345 357 352 346 342 343 343 342 341 338 333 326 325 320 319 320 324 320 320 323 326 330 330 321 321 322 313 310 309 308 309 307 305 311
56 50 43 24 10 360 354 360 359 354 350 345 342 340 336 331 333 332 329 328 326 319 319 322 323 319 322 323 325 332 330 323 324 330 330 328 316 312 310 308 309 311 312
45 38 22 8 1 352 347 351 348 338 333 330 329 329 329 331 329 326 326 320 317 318 320 321 322 326 325 326 331 326 321 324 329 335 336 327 317 316 315 315 315 314 309